Вернуться в каталог

SL-12 R/B(2)

АктивенHEO
NORAD 25525·ROCKET BODY·🇷🇺 Russia

Запущен Nov 4, 1998 с Baikonur Cosmodrome

Loading…

Ближайшие Пролёты (ближайшие 24 часа)

TLE

СвежийSource: Space-Track

Эпоха: Sep 8, 2026, 08:28 UTC

1 25525U 98065D   26251.35335834 -.00000199  00000-0  00000-0 0  9997
2 25525  17.2605  89.2580 5237208 269.6991  32.9973  1.88161298191382

Отслеживайте SL-12 R/B(2) в реальном времени с AllMySat

Download on the App Store